When you browse on this site, cookies collect data to enhance your experience and personalize the content and advertising you see.
Visit our Privacy Policy to learn more. By continuing to use the site, you agree to this use of cookies and data.
  • En España
  • Lista de países
  • Para 7 días
  • Temperatura del agua
  • Mapa Satelital
  • El tiempo en el mapa
  • Informadores
  • user-avatar
    Iniciar sesión

    Tiempo cada hora Mundu

    Hoy, 22 Abril, Lunes

    Tiempo Temperatura Precipitaciones Viento Presión Humedad
    00:00 +34°C° 0 mm 1 mps 720 mmHg 33%
    01:00 +33°C° 0 mm 1 mps 720 mmHg 38%
    02:00 +32°C° 0 mm 1 mps 720 mmHg 41%
    03:00 +32°C° 0 mm 1 mps 720 mmHg 45%
    04:00 +31°C° 0 mm 1 mps 720 mmHg 49%
    05:00 +31°C° 0 mm 1 mps 721 mmHg 49%
    06:00 +31°C° 0 mm 1 mps 721 mmHg 50%
    07:00 +32°C° 0 mm 2 mps 721 mmHg 50%
    08:00 +35°C° 0 mm 2 mps 721 mmHg 44%
    09:00 +37°C° 0 mm 2 mps 722 mmHg 37%
    10:00 +39°C° 0 mm 2 mps 722 mmHg 31%
    11:00 +41°C° 0 mm 2 mps 722 mmHg 26%
    12:00 +42°C° 0 mm 2 mps 721 mmHg 22%
    13:00 +44°C° 0 mm 1 mps 721 mmHg 17%
    14:00 +44°C° 0 mm 1 mps 720 mmHg 16%
    15:00 +43°C° 0 mm 1 mps 720 mmHg 15%
    16:00 +43°C° 0 mm 1 mps 719 mmHg 14%
    17:00 +42°C° 0 mm 1 mps 719 mmHg 15%
    18:00 +41°C° 0 mm 1 mps 719 mmHg 16%
    19:00 +36°C° 0 mm 0 mps 720 mmHg 17%
    20:00 +36°C° 0 mm 0 mps 720 mmHg 18%
    21:00 +35°C° 0 mm 0 mps 720 mmHg 18%
    22:00 +34°C° 0 mm 0 mps 721 mmHg 19%
    23:00 +36°C° 0 mm 1 mps 721 mmHg 21%

    Mañana, 23 Abril, Martes

    Tiempo Temperatura Precipitaciones Viento Presión Humedad
    00:00 +35°C° 0 mm 1 mps 720 mmHg 23%
    01:00 +35°C° 0 mm 2 mps 720 mmHg 25%
    02:00 +34°C° 0 mm 2 mps 720 mmHg 29%
    03:00 +34°C° 0 mm 2 mps 720 mmHg 33%
    04:00 +32°C° 0 mm 2 mps 719 mmHg 36%
    05:00 +32°C° 0 mm 2 mps 720 mmHg 40%
    06:00 +32°C° 0 mm 2 mps 720 mmHg 43%
    07:00 +32°C° 0 mm 2 mps 721 mmHg 46%
    08:00 +35°C° 0 mm 2 mps 721 mmHg 39%
    09:00 +38°C° 0 mm 2 mps 722 mmHg 32%
    10:00 +41°C° 0 mm 1 mps 722 mmHg 25%
    11:00 +42°C° 0 mm 1 mps 722 mmHg 20%
    12:00 +44°C° 0 mm 1 mps 721 mmHg 16%
    13:00 +46°C° 0 mm 1 mps 721 mmHg 12%
    14:00 +45°C° 0 mm 1 mps 720 mmHg 12%
    15:00 +46°C° 0 mm 2 mps 720 mmHg 12%
    16:00 +45°C° 0 mm 2 mps 719 mmHg 12%
    17:00 +43°C° 0 mm 2 mps 719 mmHg 13%
    18:00 +42°C° 0 mm 1 mps 720 mmHg 15%
    19:00 +40°C° 0 mm 1 mps 720 mmHg 16%
    20:00 +40°C° 0 mm 1 mps 721 mmHg 17%
    21:00 +39°C° 0 mm 1 mps 721 mmHg 17%
    22:00 +39°C° 0 mm 1 mps 722 mmHg 18%
    23:00 +37°C° 0 mm 1 mps 721 mmHg 20%

    Pasado mañana, 24 Abril, Miércoles

    Tiempo Temperatura Precipitaciones Viento Presión Humedad
    00:00 +36°C° 0 mm 1 mps 721 mmHg 21%
    01:00 +36°C° 0 mm 2 mps 721 mmHg 23%
    02:00 +36°C° 0 mm 2 mps 721 mmHg 27%
    03:00 +35°C° 0 mm 2 mps 720 mmHg 30%
    04:00 +35°C° 0 mm 2 mps 720 mmHg 34%
    05:00 +35°C° 0 mm 2 mps 721 mmHg 35%
    06:00 +35°C° 0 mm 3 mps 721 mmHg 37%
    07:00 +35°C° 0 mm 3 mps 722 mmHg 38%
    08:00 +37°C° 0 mm 3 mps 722 mmHg 34%
    09:00 +40°C° 0 mm 2 mps 723 mmHg 29%
    10:00 +42°C° 0 mm 2 mps 723 mmHg 25%
    11:00 +45°C° 0 mm 2 mps 723 mmHg 21%
    12:00 +46°C° 0 mm 1 mps 722 mmHg 16%
    13:00 +47°C° 0 mm 1 mps 721 mmHg 12%
    14:00 +48°C° 0 mm 2 mps 721 mmHg 12%
    15:00 +47°C° 0 mm 2 mps 720 mmHg 12%
    16:00 +46°C° 0 mm 2 mps 719 mmHg 11%
    17:00 +45°C° 0 mm 2 mps 720 mmHg 12%
    18:00 +43°C° 0 mm 2 mps 720 mmHg 13%
    19:00 +41°C° 0 mm 1 mps 720 mmHg 14%
    20:00 +41°C° 0 mm 1 mps 721 mmHg 15%
    21:00 +40°C° 0 mm 1 mps 721 mmHg 16%
    22:00 +39°C° 0 mm 1 mps 722 mmHg 17%
    23:00 +37°C° 0 mm 1 mps 722 mmHg 19%

    25 Abril, Jueves

    Tiempo Temperatura Precipitaciones Viento Presión Humedad
    00:00 +36°C° 0 mm 1 mps 721 mmHg 21%
    01:00 +35°C° 0 mm 1 mps 721 mmHg 23%
    02:00 +35°C° 0 mm 1 mps 721 mmHg 24%
    03:00 +34°C° 0 mm 1 mps 721 mmHg 26%
    04:00 +32°C° 0 mm 0 mps 721 mmHg 27%
    05:00 +34°C° 0 mm 1 mps 722 mmHg 28%
    06:00 +34°C° 0 mm 1 mps 722 mmHg 28%
    07:00 +35°C° 0 mm 2 mps 723 mmHg 28%
    08:00 +37°C° 0 mm 2 mps 723 mmHg 24%
    09:00 +40°C° 0 mm 2 mps 723 mmHg 20%
    10:00 +43°C° 0 mm 2 mps 723 mmHg 15%
    11:00 +45°C° 0 mm 1 mps 723 mmHg 13%
    12:00 +47°C° 0 mm 1 mps 722 mmHg 11%
    13:00 +49°C° 0 mm 1 mps 721 mmHg 8%
    14:00 +48°C° 0 mm 1 mps 721 mmHg 8%
    15:00 +47°C° 0 mm 1 mps 720 mmHg 8%
    16:00 +47°C° 0 mm 2 mps 719 mmHg 8%
    17:00 +44°C° 0 mm 1 mps 720 mmHg 8%
    18:00 +43°C° 0 mm 1 mps 720 mmHg 9%
    19:00 +41°C° 0 mm 1 mps 720 mmHg 10%
    20:00 +40°C° 0 mm 1 mps 721 mmHg 10%
    21:00 +39°C° 0 mm 1 mps 721 mmHg 9%
    22:00 +37°C° 0 mm 1 mps 722 mmHg 9%
    23:00 +36°C° 0 mm 1 mps 721 mmHg 11%

    26 Abril, Viernes

    Tiempo Temperatura Precipitaciones Viento Presión Humedad
    00:00 +35°C° 0 mm 1 mps 721 mmHg 12%
    01:00 +34°C° 0 mm 1 mps 720 mmHg 13%
    02:00 +33°C° 0 mm 1 mps 720 mmHg 17%
    03:00 +33°C° 0 mm 1 mps 720 mmHg 21%
    04:00 +32°C° 0 mm 1 mps 720 mmHg 24%
    05:00 +32°C° 0 mm 1 mps 721 mmHg 23%
    06:00 +32°C° 0 mm 2 mps 722 mmHg 22%
    07:00 +32°C° 0 mm 2 mps 722 mmHg 21%
    08:00 +36°C° 0 mm 2 mps 722 mmHg 15%
    09:00 +39°C° 0 mm 2 mps 723 mmHg 10%
    10:00 +42°C° 0 mm 2 mps 723 mmHg 4%
    11:00 +43°C° 0 mm 2 mps 722 mmHg 4%
    12:00 +46°C° 0 mm 2 mps 721 mmHg 3%
    13:00 +47°C° 0 mm 2 mps 721 mmHg 2%
    14:00 +47°C° 0 mm 2 mps 720 mmHg 3%
    15:00 +47°C° 0 mm 2 mps 719 mmHg 3%
    16:00 +46°C° 0 mm 2 mps 719 mmHg 3%
    17:00 +43°C° 0 mm 2 mps 719 mmHg 3%
    18:00 +41°C° 0 mm 1 mps 719 mmHg 4%
    19:00 +39°C° 0 mm 1 mps 720 mmHg 4%
    20:00 +37°C° 0 mm 1 mps 720 mmHg 4%
    21:00 +36°C° 0 mm 1 mps 720 mmHg 5%
    22:00 +36°C° 0 mm 2 mps 720 mmHg 5%
    23:00 +35°C° 0 mm 1 mps 720 mmHg 5%

    27 Abril, Sábado

    Tiempo Temperatura Precipitaciones Viento Presión Humedad
    00:00 +34°C° 0 mm 1 mps 719 mmHg 5%
    01:00 +33°C° 0 mm 1 mps 719 mmHg 5%
    02:00 +32°C° 0 mm 1 mps 719 mmHg 6%
    03:00 +31°C° 0 mm 1 mps 719 mmHg 6%
    04:00 +30°C° 0 mm 2 mps 719 mmHg 7%
    05:00 +31°C° 0 mm 2 mps 720 mmHg 8%
    06:00 +31°C° 0 mm 2 mps 721 mmHg 10%
    07:00 +31°C° 0 mm 2 mps 721 mmHg 12%
    08:00 +35°C° 0 mm 2 mps 722 mmHg 10%
    09:00 +38°C° 0 mm 2 mps 722 mmHg 9%
    10:00 +41°C° 0 mm 2 mps 722 mmHg 8%
    11:00 +43°C° 0 mm 2 mps 721 mmHg 6%
    12:00 +46°C° 0 mm 2 mps 721 mmHg 5%
    13:00 +47°C° 0 mm 2 mps 720 mmHg 3%
    14:00 +46°C° 0 mm 1 mps 720 mmHg 3%
    15:00 +46°C° 0 mm 1 mps 719 mmHg 3%
    16:00 +46°C° 0 mm 1 mps 718 mmHg 3%
    17:00 +44°C° 0 mm 1 mps 719 mmHg 3%
    18:00 +41°C° 0 mm 1 mps 719 mmHg 4%
    19:00 +36°C° 0 mm 0 mps 720 mmHg 4%
    20:00 +39°C° 0 mm 1 mps 720 mmHg 4%
    21:00 +37°C° 0 mm 1 mps 720 mmHg 5%
    22:00 +36°C° 0 mm 1 mps 720 mmHg 5%
    23:00 +36°C° 0 mm 2 mps 720 mmHg 9%
    Mostrar más